Location: Unspecified
(41.1850°N, 73.2650°W)
Time: 14:39:23
(UTC+00:00)

Hubble Space Telescope - Pass Details

Date: 21 February 2026
Orbit: 476 x 478 km, 28.5° (Epoch: 14 March)

Event Time Altitude Azimuth Distance (km) Brightness Sun altitude
Exits shadow 10:43:39 - 223° (SW) 2,025 3.3 -11.2°
Reaches altitude 10° 10:45:25 10° 203° (SSW) 1,638 3.1 -10.8°
Maximum altitude 10:46:53 12° 180° (S) 1,522 3.1 -10.6°
Drops below altitude 10° 10:48:21 10° 156° (SSE) 1,639 3.6 -10.3°
Sets 10:51:44 0° 124° (SE) 2,517 5.4 -9.7°
